User: anonymous   Login
Location: NJAA Observatory
(40.6819°N, 74.8979°W)
Time: 07:08:30
(UTC-04:00)
Language:

Meteor 1-28 Rocket - Orbit

View from above orbital plane
View from above orbital plane
View from above satellite
View from above satellite

Ground track
Ground track

The orbit data is extracted from the following two-line orbital elements,

1 10114U 77057B   17149.93928296 +.00000451 +00000-0 +26147-4 0  9997
2 10114 097.2006 333.1522 0014826 029.5318 330.6750 15.16714116180580
Epoch (UTC): 29 May 2017 22:32:34
Eccentricity: 0.0014826
inclination: 97.2006°
perigee height: 505 km
apogee height: 526 km
right ascension of ascending node: 333.1522°
argument of perigee: 29.5318°
revolutions per day: 15.16714116
mean anomaly at epoch: 330.6750°
orbit number at epoch: 18058

The dashed part of the orbit path shows where the satellite is in the earth's shadow,  

DLR